Flag for Tanzania Weather past 2 weeks in Dar es Salaam, Tanzania

Now
84 °F

Broken clouds.


Feels Like: 88 °F
Forecast: 72 / 85 °F
Wind: 6 mph from South

Location: Dar Es Salaam Airport

Current Time: Jul 29, 2015 at 1:15:11 PM

Latest Report: Jul 29, 2015 at 12:00 PM


Visibility: N/A

Pressure: 30.07 "Hg

Humidity: 62%

Dew point: 70 °F

Location of Dar es SalaamLocation

Historic Weather in Dar es Salaam — Graph

°F

Dar es Salaam temperature yesterday

Maximum temperature yesterday: 86 °F (at 12:00 PM)
Minimum temperature yesterday: 68 °F (at 6:00 AM)
Average temperature yesterday: 79 °F

Past Weeks' High & Low Weather Summary

 TemperatureHumidityPressure
High90 °F (Jul 14, 2:00 PM)100% (Jul 17, 7:00 AM)30.12 "Hg (Jul 17, 7:00 AM)
Low68 °F (Jul 15, 6:00 AM)40% (Jul 27, 4:00 PM)29.95 "Hg (Jul 26, 3:00 PM)
Average79 °F71%30.04 "Hg
* Reported Jul 14 12:00 Noon — Jul 29 12:00 Noon, Dar es Salaam, Weather by CustomWeather, © 2015

Note: Actual official high and low records may vary slightly from our data, if they occured in-between our weather recording intervals... More about our weather records

Advertising

Dar es Salaam weather history for previous 24 hours

 ConditionsComfort  
Time TempWeatherWind HumidityBarometerVisibility
12:00 PM
Wed, Jul 29
84 °FBroken clouds.6 mph62%30.07 "HgN/A
11:00 AM82 °FBroken clouds.12 mph70%30.07 "HgN/A
10:00 AM79 °FBroken clouds.No wind79%30.07 "HgN/A
9:00 AM77 °FBroken clouds.No wind83%30.07 "HgN/A
8:00 AM73 °FBroken clouds.5 mph94%30.04 "HgN/A
7:00 AM72 °FBroken clouds.6 mph94%30.01 "HgN/A
6:00 AM72 °FPassing clouds.No wind94%30.01 "HgN/A
3:00 AM72 °FPassing clouds.No wind94%30.04 "HgN/A
12:00 AM75 °FMild.No wind89%30.04 "HgN/A
11:00 PM
Tue, Jul 28
75 °FPassing clouds.No wind89%30.04 "HgN/A
10:00 PM75 °FPassing clouds.5 mph89%30.04 "HgN/A
9:00 PM77 °FPassing clouds.6 mph83%30.01 "HgN/A
8:00 PM77 °FPassing clouds.6 mph83%30.01 "HgN/A
6:00 PM81 °FScattered clouds.8 mph70%29.98 "HgN/A
5:00 PM84 °FScattered clouds.12 mph62%29.98 "HgN/A
4:00 PM86 °FBroken clouds.17 mph59%29.95 "HgN/A
3:00 PM86 °FBroken clouds.12 mph59%29.98 "HgN/A
2:00 PM86 °FBroken clouds.14 mph55%30.01 "HgN/A
1:00 PMN/ABroken clouds.16 mphN/A30.01 "HgN/A
Weather by CustomWeather, © 2015

See weather overviewHow to use our weather pages